This demonstration page uses our WeatherBlox Daily Observations layout. Learn more.

Left ArrowRight Arrow

Hourly Observations for July 27, 2018

Temp ( °F °C ) Dew Point ( °F °C ) Humidity (%) Winds ( mph kmh ) Pressure ( in mb ) Visibility ( mi km ) Precip ( " mm )
12:53 am 00:53 Mostly Clear 59 15 53 11.7 81 81 Calm 30.14 1021 10 16 0.00 0.00
1:53 am 01:53 Mostly Clear 57 13.9 50 10 78 78 SW 3 6 30.14 1021 10 16 0.00 0.00
2:53 am 02:53 Clear 56 13.3 49 9.4 77 77 SSW 3 6 30.13 1020 10 16 0.00 0.00
3:53 am 03:53 Clear 53 11.7 49 9.4 86 86 WSW 6 9 30.14 1021 10 16 0.00 0.00
4:53 am 04:53 Clear 56 13.3 52 11.1 87 87 SSW 7 11 30.14 1021 10 16 0.00 0.00
5:53 am 05:53 Sunny 54 12.2 51 10.6 90 90 SW 8 13 30.14 1021 10 16 0.00 0.00
6:53 am 06:53 Mostly Sunny 56 13.3 52 11.1 87 87 SW 6 9 30.14 1021 10 16 0.00 0.00
7:53 am 07:53 Sunny 58 14.4 52 11.1 81 81 W 6 9 30.16 1021 10 16 0.00 0.00
8:53 am 08:53 Sunny 62 16.7 51 10.6 67 67 VRB 3 6 30.16 1021 10 16 0.00 0.00
9:53 am 09:53 Mostly Sunny 67 19.4 50 10 55 55 VRB 5 7 30.16 1021 10 16 0.00 0.00
10:53 am 10:53 Sunny 70 21.1 51 10.6 51 51 VRB 3 6 30.15 1021 10 16 0.00 0.00
11:53 am 11:53 Sunny 74 23.3 49 9.4 41 41 NNW 5 7 30.14 1021 10 16 0.00 0.00
12:53 pm 12:53 Sunny 77 25 49 9.4 37 37 Calm 30.12 1020 10 16 0.00 0.00
1:53 pm 13:53 Partly Cloudy 77 25 48 8.9 36 36 SE 7 11 30.11 1020 10 16 0.00 0.00
2:53 pm 14:53 Sunny 79 26.1 46 7.8 31 31 W 8 13 30.10 1019 10 16 0.00 0.00
3:53 pm 15:53 Mostly Cloudy 80 26.7 45 7.2 29 29 VRB 5 7 30.09 1019 10 16 0.00 0.00
4:53 pm 16:53 Sunny 82 27.8 43 6.1 25 25 VRB 5 7 30.06 1018 10 16 0.00 0.00
5:53 pm 17:53 Sunny 81 27.2 40 4.4 23 23 NNW 7 11 30.06 1018 10 16 0.00 0.00
6:53 pm 18:53 Mostly Cloudy 78 25.6 49 9.4 36 36 E 16 26 30.06 1018 10 16 0.00 0.00
7:00 pm 19:00 Mostly Cloudy 75 24 50 10 41 41 E 18 30 29.94 1014 10 16 0.00 0.00
7:53 pm 19:53 Mostly Sunny 75 23.9 49 9.4 40 40 E 12 19 30.07 1018 10 16 0.00 0.00
8:53 pm 20:53 Sunny 69 20.6 51 10.6 53 53 E 14 22 30.09 1019 10 16 0.00 0.00
9:53 pm 21:53 Clear 65 18.3 50 10 59 59 E 13 20 30.10 1019 10 16 0.00 0.00
10:53 pm 22:53 Clear 61 16.1 51 10.6 70 70 E 7 11 30.09 1019 10 16 0.00 0.00
11:53 pm 23:53 Clear 58 14.4 51 10.6 78 78 ENE 8 13 30.09 1019 10 16 0.00 0.00

Powered by AerisWeather